Wind_Speed
17 17 18 18 19 19 19 19 19 19 20 21 21 22 22 23 23 23 23 23 23 23 23 23 24 24 25 25 25 25 26 25 26 26 26 26 25 25
17 18 19 20 20 21 21 21 21 21 21 22 23 23 23 24 24 24 25 24 24 24 24 24 25 25 26 26 26 27 27 27 27 28 28 28 28 27
19 19 19 19 20 20 21 21 21 22 22 22 24 24 25 25 25 25 26 26 26 26 26 26 26 26 26 26 26 26 27 28 28 29 29 29 28 28
20 20 20 20 20 20 21 21 22 22 22 23 24 24 26 26 26 26 26 27 27 27 27 28 28 28 28 28 28 28 28 28 29 30 31 31 30 30
21 21 21 21 21 22 22 23 23 23 23 24 24 25 25 26 26 27 27 28 28 28 28 28 29 29 29 30 30 30 30 29 29 29 30 31 31 31
22 22 22 23 23 23 23 24 24 25 25 25 25 26 26 27 27 27 27 28 28 28 29 29 29 30 30 30 31 31 31 31 30 30 31 31 31 31
23 23 24 24 24 24 24 25 25 26 26 26 26 26 27 27 27 27 27 28 28 28 28 29 29 29 29 30 30 31 31 31 31 32 32 32 32 32
24 25 25 25 25 26 26 26 26 26 27 27 27 27 27 27 27 27 27 26 27 28 28 28 28 28 28 29 30 30 31 32 32 33 33 33 34 34
25 26 26 26 26 26 26 26 26 27 27 27 27 27 27 28 28 28 27 27 27 28 28 28 28 28 28 29 29 29 30 32 32 32 33 33 34 34
26 26 26 26 27 27 27 27 28 28 28 28 28 28 28 28 28 28 28 28 28 28 28 27 27 27 27 27 28 29 29 30 31 31 32 32 33 34
27 27 27 27 27 28 28 28 29 29 29 29 29 28 28 28 28 28 28 28 28 28 28 27 26 26 26 27 27 28 29 29 29 30 30 30 30 31
28 28 28 29 29 29 29 29 30 30 30 29 28 28 28 28 28 28 28 28 28 28 28 28 27 26 26 26 27 27 27 28 28 28 29 29 29 29
29 29 29 29 29 30 30 30 30 30 30 29 29 29 29 29 28 29 29 29 28 28 29 29 28 27 26 26 26 26 27 27 27 28 28 28 27 28
29 30 30 30 30 30 30 31 31 30 29 29 30 30 29 29 29 29 29 29 29 28 28 29 28 28 27 27 26 26 26 27 27 28 28 28 28 28
31 31 31 31 31 31 31 30 31 31 30 30 30 30 30 30 29 29 28 29 29 29 29 29 29 28 27 27 27 26 26 27 27 28 28 28 28 28
32 32 31 31 32 32 32 32 32 32 32 32 31 31 31 30 29 28 28 28 28 29 29 28 28 29 28 27 27 26 27 27 27 28 29 28 29 29
32 32 32 32 33 32 33 33 32 32 32 32 31 31 31 30 29 28 28 28 28 29 29 28 29 29 29 27 27 27 27 27 26 27 27 28 29 29
32 32 32 32 32 33 33 33 33 33 32 32 31 30 30 30 29 29 29 29 29 28 28 29 28 28 28 27 27 27 27 27 26 26 26 27 28 28
32 32 32 32 32 32 32 33 33 33 32 32 31 30 30 30 30 30 29 29 29 28 28 28 28 28 27 27 27 27 27 27 27 26 26 26 27 27
32 31 31 31 30 30 31 31 32 32 31 30 30 30 30 30 29 29 28 28 28 28 28 28 27 27 27 27 27 27 27 27 27 27 26 26 26 27
31 31 30 30 30 30 30 30 30 30 29 29 29 29 29 29 28 28 28 28 28 27 27 26 26 26 26 27 27 27 27 26 26 26 26 26 26 26
31 30 30 30 31 30 29 29 29 29 29 29 29 28 28 28 27 27 27 27 26 26 25 25 25 26 26 26 26 26 26 26 25 26 26 26 25 25
30 30 30 30 29 29 29 29 29 29 29 28 28 28 27 27 27 26 26 26 25 24 24 24 24 25 25 25 26 26 26 25 25 25 25 25 25 25
Wind_Direction
289 289 286 284 282 281 281 282 281 280 278 275 274 273 272 271 270 270 269 269 267 266 264 264 262 261 259 259 257 256 255 254 253 252 253 254 254 254
291 290 288 285 282 281 281 282 282 280 279 277 275 274 272 271 270 269 268 269 268 268 266 265 265 264 261 260 258 256 254 254 253 253 253 254 255 255
292 291 288 287 285 283 282 281 281 280 280 278 277 275 274 273 272 272 270 268 269 269 268 266 267 266 264 259 259 257 255 254 254 254 252 252 253 254
293 291 289 288 287 286 285 284 283 282 282 282 281 279 278 276 274 272 270 268 268 269 268 267 267 266 264 263 261 258 258 257 256 256 255 254 254 255
293 293 293 294 291 287 286 286 285 285 285 283 282 281 280 279 276 273 270 269 269 268 269 267 266 266 264 263 262 260 258 258 258 258 258 256 255 255
292 293 293 293 294 292 289 288 287 288 287 285 283 282 281 280 279 277 274 272 270 270 270 268 267 266 265 263 262 260 259 258 259 259 259 258 257 256
291 291 292 292 293 293 291 290 289 288 288 287 285 283 281 280 279 278 277 274 273 271 270 268 267 266 265 263 262 260 260 260 260 260 260 259 259 257
291 290 290 290 290 291 291 290 289 289 289 287 286 286 283 282 280 278 277 275 274 273 271 270 269 266 264 264 264 262 261 261 262 262 260 259 258 258
290 290 290 290 289 290 289 288 289 289 288 287 287 286 285 282 280 278 277 276 276 276 273 270 270 269 268 266 266 264 263 262 263 263 261 260 259 258
288 289 288 289 289 289 289 288 289 289 288 286 285 285 284 283 281 279 277 277 276 276 273 271 268 269 270 269 267 266 265 264 264 264 263 260 259 258
289 288 287 288 289 289 288 288 288 288 287 287 286 285 285 283 281 280 277 276 275 275 274 272 270 270 270 270 270 268 266 266 265 263 262 260 259 258
289 289 288 289 290 289 288 288 288 287 287 287 288 288 286 284 281 279 278 276 275 275 274 272 272 270 271 271 270 269 266 265 265 264 263 262 262 260
289 289 289 290 290 289 289 289 289 288 287 287 287 287 286 285 283 281 278 277 275 275 274 274 273 272 271 271 270 269 267 264 264 263 262 262 262 262
289 289 289 290 291 291 290 289 289 289 288 288 288 287 286 285 284 282 280 278 277 276 274 274 273 273 272 271 269 269 268 266 265 264 263 262 262 261
287 288 288 289 289 290 290 289 288 289 289 288 288 287 285 284 283 282 281 280 279 277 275 274 273 271 271 270 268 268 270 268 266 265 264 263 262 260
285 286 286 286 287 288 288 287 287 289 288 288 288 286 284 284 285 282 281 280 279 277 276 275 274 273 271 270 269 268 268 268 267 266 264 263 262 262
285 286 286 285 286 286 287 287 288 289 289 287 287 286 285 283 282 282 281 281 280 277 275 274 274 274 271 270 268 268 268 267 268 268 265 263 262 262
287 288 287 286 286 286 286 287 288 288 288 286 286 286 285 283 280 280 282 280 279 278 276 274 274 273 272 271 269 268 267 266 266 267 265 263 261 261
288 289 288 287 286 286 286 286 287 287 287 286 285 285 283 284 282 281 280 280 279 277 276 275 272 271 272 272 271 269 268 266 266 266 265 264 262 260
288 288 288 288 287 286 287 287 287 287 288 288 287 286 284 282 282 282 282 280 278 278 277 276 272 270 271 271 271 269 267 266 266 266 266 266 264 262
287 288 288 287 288 287 287 287 289 289 289 290 288 287 286 284 283 282 281 279 278 278 277 275 273 271 271 270 270 270 269 268 267 266 266 266 265 263
290 289 288 287 288 289 289 289 290 290 291 290 289 288 287 285 284 282 280 279 277 276 274 273 272 271 272 272 272 271 270 270 270 268 266 265 266 264
290 289 289 289 289 289 290 290 291 291 292 292 290 288 287 285 282 281 279 277 276 275 272 270 271 272 272 273 273 272 271 269 270 269 267 265 265 264
Height
5831 5830 5829 5828 5827 5826 5825 5824 5824 5823 5822 5821 5819 5818 5818 5817 5817 5816 5816 5816 5817 5817 5817 5818 5818 5819 5820 5820 5821 5822 5824 5825 5826 5828 5829 5830 5831 5833
5827 5825 5824 5823 5821 5820 5819 5818 5817 5817 5816 5815 5813 5812 5812 5811 5810 5810 5810 5810 5810 5810 5811 5811 5811 5812 5813 5813 5814 5815 5816 5818 5819 5821 5822 5823 5824 5826
5822 5820 5819 5817 5816 5814 5813 5812 5811 5810 5809 5808 5807 5806 5805 5804 5804 5803 5803 5803 5803 5803 5803 5804 5804 5804 5805 5806 5806 5807 5809 5810 5812 5813 5814 5816 5817 5818
5816 5815 5813 5812 5810 5809 5807 5806 5804 5803 5803 5802 5800 5799 5798 5797 5796 5796 5796 5795 5795 5795 5796 5796 5796 5796 5797 5797 5798 5800 5801 5802 5803 5805 5806 5808 5809 5810
5810 5809 5808 5806 5804 5802 5801 5799 5798 5796 5796 5795 5793 5792 5791 5789 5789 5788 5788 5787 5787 5787 5787 5788 5788 5788 5789 5789 5790 5791 5793 5794 5795 5796 5797 5799 5800 5802
5804 5803 5801 5800 5798 5796 5794 5793 5791 5790 5789 5787 5786 5784 5783 5782 5781 5780 5780 5779 5779 5779 5779 5779 5779 5780 5780 5781 5782 5783 5784 5785 5786 5787 5789 5790 5791 5793
5798 5796 5795 5793 5791 5789 5787 5786 5784 5783 5781 5780 5778 5777 5775 5774 5773 5772 5772 5771 5771 5771 5771 5771 5771 5771 5771 5772 5773 5774 5775 5776 5777 5778 5779 5780 5782 5783
5791 5790 5788 5786 5784 5782 5781 5779 5777 5775 5774 5772 5771 5769 5767 5766 5765 5764 5764 5764 5763 5763 5762 5762 5762 5762 5762 5763 5764 5764 5765 5766 5767 5768 5769 5771 5772 5773
5784 5783 5781 5779 5777 5775 5773 5771 5770 5768 5766 5765 5763 5761 5760 5758 5757 5756 5756 5755 5755 5755 5754 5754 5754 5754 5754 5754 5755 5755 5756 5757 5758 5758 5759 5760 5762 5763
5777 5775 5773 5772 5770 5768 5766 5764 5762 5760 5758 5757 5755 5753 5752 5750 5749 5748 5747 5747 5747 5746 5745 5746 5745 5745 5745 5745 5745 5746 5747 5747 5748 5748 5749 5750 5752 5753
5769 5768 5766 5764 5762 5760 5758 5756 5754 5752 5750 5748 5746 5745 5743 5742 5741 5740 5739 5739 5738 5737 5737 5737 5737 5737 5737 5736 5736 5737 5737 5738 5738 5739 5740 5741 5742 5743
5761 5759 5758 5756 5754 5751 5749 5747 5745 5743 5741 5740 5738 5736 5735 5733 5732 5731 5730 5730 5729 5729 5728 5728 5728 5728 5728 5728 5728 5728 5728 5728 5729 5730 5731 5732 5733 5734
5753 5751 5749 5747 5745 5743 5741 5739 5737 5734 5732 5731 5729 5728 5726 5724 5723 5722 5721 5721 5720 5720 5720 5719 5719 5719 5719 5719 5719 5719 5719 5719 5720 5721 5722 5723 5724 5725
5745 5743 5740 5738 5736 5734 5732 5730 5728 5726 5724 5722 5720 5719 5717 5715 5714 5712 5711 5711 5711 5711 5710 5710 5710 5710 5710 5710 5710 5710 5710 5710 5711 5711 5712 5713 5714 5715
5736 5734 5732 5730 5727 5725 5723 5721 5719 5717 5715 5713 5711 5709 5708 5706 5704 5703 5702 5701 5701 5701 5701 5700 5700 5700 5700 5700 5701 5701 5701 5701 5702 5702 5703 5704 5705 5706
5726 5724 5723 5720 5719 5717 5714 5712 5710 5708 5706 5704 5702 5700 5698 5697 5695 5694 5693 5692 5692 5691 5691 5691 5691 5691 5691 5691 5691 5692 5692 5692 5692 5693 5694 5694 5695 5696
5716 5715 5713 5711 5709 5707 5705 5703 5701 5699 5697 5695 5693 5690 5688 5687 5686 5685 5684 5683 5683 5682 5682 5682 5681 5681 5681 5682 5682 5682 5683 5683 5683 5684 5684 5685 5686 5687
5707 5705 5703 5701 5699 5697 5695 5693 5691 5689 5687 5685 5683 5681 5679 5678 5677 5676 5675 5674 5673 5673 5673 5673 5672 5672 5672 5672 5673 5673 5674 5674 5675 5675 5675 5676 5678 5678
5697 5695 5693 5691 5689 5688 5686 5684 5681 5679 5677 5675 5673 5672 5670 5669 5667 5666 5665 5665 5664 5664 5663 5663 5663 5663 5663 5664 5664 5664 5665 5665 5666 5666 5667 5668 5668 5669
5687 5685 5683 5681 5679 5677 5675 5673 5671 5669 5667 5665 5664 5662 5661 5660 5658 5657 5656 5656 5655 5655 5654 5654 5654 5654 5654 5655 5655 5655 5655 5656 5657 5658 5658 5658 5659 5660
5676 5675 5673 5671 5669 5668 5666 5663 5662 5660 5658 5656 5654 5653 5651 5650 5649 5648 5647 5647 5646 5646 5645 5645 5645 5645 5645 5646 5646 5646 5647 5647 5648 5648 5649 5650 5650 5651
5666 5664 5663 5661 5659 5658 5656 5654 5652 5650 5648 5647 5645 5643 5642 5641 5640 5639 5638 5638 5637 5637 5637 5636 5636 5636 5637 5637 5637 5638 5638 5638 5639 5639 5640 5641 5641 5642
5656 5655 5653 5651 5650 5648 5646 5645 5643 5641 5639 5637 5636 5634 5633 5632 5631 5630 5629 5629 5629 5628 5628 5628 5628 5628 5628 5628 5629 5629 5629 5630 5630 5630 5631 5631 5632 5633